Regional Weather Roundup
Issued by NWS Goodland, KS

Home | Current Version | Previous Version | Graphics & Text | Print | Product List | Glossary On
Versions: 1 2 3 4 5 6 7 8 9 10 11 12 13 14 15 16 17 18 19 20 21 22 23 24 25 26 27 28 29 30 31 32 33 34 35 36 37 38 39 40 41 42 43 44 45 46 47 48 49 50
000
ASUS43 KGLD 220759
RWRGLD

GOODLAND FORECAST AREA HOURLY WEATHER ROUNDUP
NATIONAL WEATHER SERVICE GOODLAND KS
200 AM MDT FRI MAY 22 2015

...OFFICIAL OBSERVATIONS...

CITY           SKY/WX    TMP DP  RH WIND       PRES   REMARKS
GOODLAND KS    CLOUDY    48  46  93 SE9       30.15F
HILL CITY KS   CLOUDY    48  44  86 CALM      30.20F
IMPERIAL NEB   CLOUDY    47  43  86 S7        30.15F
MCCOOK NEB     CLOUDY    47  43  86 SE6       30.17F
AKRON CO       CLOUDY    46  45  96 SE17      30.11F
BURLINGTON CO  CLOUDY    48  44  86 SE13      30.13F
LIMON CO       CLOUDY    44  43  96 SE16      30.09F
$$

...UNOFFICIAL OBSERVATIONS...

CITY           SKY/WX    TMP DP  RH WIND       PRES   REMARKS
COLBY KS       CLOUDY    50  48  93 SE7       30.17F
GOVE KS          N/A     50  32  50 MISG        N/A
LENORA KS        N/A     47  32  56 MISG        N/A
NORTON KS      CLEAR     48  43  81 E3        30.18F
SHARON SPRINGS   N/A     50  48  92 MISG        N/A
TRENTON NEB      N/A     47  32  56 SE7         N/A
KIT CARSON CO    N/A     46  43  90 MISG        N/A
YUMA CO          N/A     49  44  82 SE9G16      N/A
$$



USA.gov is the U.S. government's official web portal to all federal, state and local government web resources and services.